TimeEDT,TemperatureF,Dew PointF,Humidity,Sea Level PressureIn,VisibilityMPH,Wind Direction,Wind SpeedMPH,Gust SpeedMPH,PrecipitationIn,Events,Conditions,WindDirDegrees,DateUTC
12:15 AM,68.0,68.0,100,29.89,10.0,Calm,Calm,-,N/A,,Clear,0,2012-10-18 04:15:00
12:35 AM,68.0,68.0,100,29.89,8.0,Calm,Calm,-,N/A,,Clear,0,2012-10-18 04:35:00
12:55 AM,68.0,68.0,100,29.89,9.0,Calm,Calm,-,N/A,,Clear,0,2012-10-18 04:55:00
1:15 AM,66.2,66.2,100,29.88,6.0,Calm,Calm,-,N/A,,Clear,0,2012-10-18 05:15:00
1:35 AM,66.2,66.2,100,29.88,4.0,Calm,Calm,-,N/A,,Clear,0,2012-10-18 05:35:00
1:55 AM,66.2,66.2,100,29.87,5.0,Calm,Calm,-,N/A,,Clear,0,2012-10-18 05:55:00
2:15 AM,66.2,-9999,N/A,29.87,0.5,Calm,Calm,-,N/A,Fog,Fog,0,2012-10-18 06:15:00
2:35 AM,66.2,-9999,N/A,29.86,0.2,Calm,Calm,-,N/A,Fog,Fog,0,2012-10-18 06:35:00
2:55 AM,68.0,-9999,N/A,29.85,0.2,SE,3.5,-,N/A,Fog,Fog,130,2012-10-18 06:55:00
3:15 AM,68.0,-9999,N/A,29.85,0.5,SE,4.6,-,N/A,Fog,Fog,140,2012-10-18 07:15:00
3:35 AM,69.8,-9999,N/A,29.85,1.5,SE,5.8,-,N/A,,Overcast,140,2012-10-18 07:35:00
3:55 AM,69.8,-9999,N/A,29.84,4.0,SE,5.8,-,N/A,,Haze,140,2012-10-18 07:55:00
4:15 AM,69.8,-9999,N/A,29.84,7.0,SSE,4.6,-,N/A,,Overcast,150,2012-10-18 08:15:00
4:35 AM,68.0,-9999,N/A,29.84,7.0,SSE,4.6,-,N/A,,Scattered Clouds,150,2012-10-18 08:35:00
4:55 AM,68.0,-9999,N/A,29.85,5.0,SSE,4.6,-,N/A,,Haze,150,2012-10-18 08:55:00
5:15 AM,68.0,-9999,N/A,29.85,4.0,SSE,3.5,-,N/A,,Haze,160,2012-10-18 09:15:00
5:35 AM,68.0,-9999,N/A,29.86,1.0,SSE,3.5,-,N/A,,Overcast,150,2012-10-18 09:35:00
5:55 AM,68.0,-9999,N/A,29.87,1.0,SE,3.5,-,N/A,,Overcast,130,2012-10-18 09:55:00
6:15 AM,68.0,-9999,N/A,29.87,0.5,SE,4.6,-,N/A,Fog,Fog,130,2012-10-18 10:15:00
6:35 AM,68.0,-9999,N/A,29.87,0.5,SE,3.5,-,N/A,Fog,Fog,140,2012-10-18 10:35:00
6:55 AM,68.0,-9999,N/A,29.89,0.2,ESE,3.5,-,N/A,Fog,Fog,120,2012-10-18 10:55:00
7:15 AM,68.0,-9999,N/A,29.89,0.2,Calm,Calm,-,N/A,Fog,Fog,0,2012-10-18 11:15:00
7:30 AM,68.0,68.0,100,29.89,0.5,Calm,Calm,-,N/A,Fog,Fog,0,2012-10-18 11:30:00
7:52 AM,68.0,68.0,100,29.89,0.2,Calm,Calm,-,N/A,Fog,Fog,0,2012-10-18 11:52:00
8:55 AM,68.0,68.0,100,29.92,3.0,Calm,Calm,-,N/A,,Mostly Cloudy,0,2012-10-18 12:55:00
9:52 AM,69.8,68.0,94,29.93,10.0,Variable,4.6,-,N/A,,Mostly Cloudy,0,2012-10-18 13:52:00
11:50 AM,80.6,66.2,61,29.91,15.0,Variable,4.6,-,N/A,,Scattered Clouds,0,2012-10-18 15:50:00
12:51 PM,82.4,66.2,58,29.88,15.0,Variable,5.8,-,N/A,,Scattered Clouds,0,2012-10-18 16:51:00
2:55 PM,84.2,66.2,55,29.82,15.0,Variable,5.8,-,N/A,,Scattered Clouds,0,2012-10-18 18:55:00
3:35 PM,84.2,66.2,55,29.82,9.0,South,3.5,-,N/A,,Partly Cloudy,170,2012-10-18 19:35:00
3:55 PM,87.8,68.0,52,29.81,9.0,SSE,6.9,-,N/A,,Scattered Clouds,150,2012-10-18 19:55:00
4:15 PM,86.0,66.2,51,29.81,9.0,SW,4.6,-,N/A,,Scattered Clouds,230,2012-10-18 20:15:00
4:35 PM,86.0,68.0,55,29.81,9.0,Calm,Calm,-,N/A,,Clear,0,2012-10-18 20:35:00
4:55 PM,84.2,66.2,55,29.81,10.0,Calm,Calm,-,N/A,,Clear,0,2012-10-18 20:55:00
5:15 PM,84.2,68.0,58,29.82,9.0,South,4.6,-,N/A,,Clear,180,2012-10-18 21:15:00
5:35 PM,84.2,68.0,58,29.82,9.0,South,4.6,-,N/A,,Scattered Clouds,180,2012-10-18 21:35:00
5:55 PM,82.4,68.0,62,29.82,9.0,Calm,Calm,-,N/A,,Scattered Clouds,0,2012-10-18 21:55:00
6:15 PM,82.4,69.8,66,29.83,9.0,SSE,3.5,-,N/A,,Partly Cloudy,150,2012-10-18 22:15:00
6:35 PM,82.4,71.6,70,29.83,9.0,Calm,Calm,-,N/A,,Mostly Cloudy,0,2012-10-18 22:35:00
6:55 PM,84.2,68.0,58,29.84,8.0,WNW,3.5,-,N/A,,Mostly Cloudy,290,2012-10-18 22:55:00
7:15 PM,82.4,64.4,54,29.84,10.0,West,6.9,-,N/A,,Partly Cloudy,280,2012-10-18 23:15:00
7:35 PM,82.4,64.4,54,29.84,10.0,West,5.8,-,N/A,,Clear,270,2012-10-18 23:35:00
7:55 PM,80.6,64.4,58,29.85,10.0,West,6.9,-,N/A,,Clear,260,2012-10-18 23:55:00
8:15 PM,78.8,66.2,65,29.86,9.0,West,4.6,-,N/A,,Clear,260,2012-10-19 00:15:00
8:35 PM,78.8,66.2,65,29.86,10.0,WSW,5.8,-,N/A,,Clear,250,2012-10-19 00:35:00
8:55 PM,77.0,66.2,69,29.87,10.0,West,4.6,-,N/A,,Partly Cloudy,260,2012-10-19 00:55:00
9:15 PM,75.2,66.2,73,29.87,10.0,WSW,4.6,-,N/A,,Scattered Clouds,250,2012-10-19 01:15:00
9:35 PM,75.2,68.0,78,29.87,10.0,WSW,4.6,-,N/A,,Scattered Clouds,240,2012-10-19 01:35:00
9:55 PM,75.2,68.0,78,29.88,10.0,WSW,3.5,-,N/A,,Scattered Clouds,250,2012-10-19 01:55:00
10:15 PM,75.2,68.0,78,29.89,10.0,West,3.5,-,N/A,,Partly Cloudy,270,2012-10-19 02:15:00
10:35 PM,75.2,66.2,73,29.89,10.0,Calm,Calm,-,N/A,,Clear,0,2012-10-19 02:35:00
10:55 PM,71.6,68.0,88,29.89,10.0,Calm,Calm,-,N/A,,Clear,0,2012-10-19 02:55:00
11:15 PM,73.4,66.2,78,29.90,10.0,Calm,Calm,-,N/A,,Partly Cloudy,0,2012-10-19 03:15:00
11:35 PM,73.4,68.0,83,29.90,10.0,Calm,Calm,-,N/A,,Mostly Cloudy,0,2012-10-19 03:35:00
11:55 PM,71.6,68.0,88,29.90,10.0,Calm,Calm,-,N/A,,Mostly Cloudy,0,2012-10-19 03:55:00